Location: Newark
(35.2672°N, 80.7344°W)
Time: 01:10:17
(UTC+00:00)

A-11 Canister half - Pass Details

Date: 02 February 2020
Orbit: 1524 x 1684 km, 47.3° (Epoch: 26 February)

Event Time Altitude Azimuth Distance (km) Brightness Sun altitude
Rises 03:57:36 0° 303° (WNW) 4,745 12.0 -61.4°
Reaches altitude 10° 04:00:42 10° 299° (WNW) 3,779 11.3 -61.9°
Enters shadow 04:01:32 13° 297° (WNW) 3,526 11.1 -62.0°
